CZ-6A DEB

Satellite information

Favourite Embed

Satellite Type and Status

DEBRISIN ORBIT

Key statistics

Satellite CZ-6A DEB at a glance.

Uptime

969

Days in orbit

Revolutions

≈ 13.8

Per day

Orbit

SSO

Sun Synchronous Orbit

Inclination

98.9

Latest

Satellite identification and parameters

Extended collection of information and parameters for CZ-6A DEB.

Object identification

Identified? True

Debris? True

Object name: CZ-6A DEB

International designator: 2022-151PE

Object number (NORAD): 54628

Object ID (CCSDS): 54628

Country: PEOPLES REPUBLIC OF CHINA (PRC)

Current information (Y/N): Y

RCS size: SMALL

Orbital parameters

Period: 104.294 minutes

Inclination: 98.9007 deg

SMA: 7339.48 km

Apoapsis: 1097.107 km

Periapsis: 825.584 km

RAAN: 147.0251 deg

Eccentricy: 0.0184974

Argument of periapsis: 6.8551 deg

Mean anomaly: 353.5069 deg

Mean motion: 13.80717425 rev/day

Mean motion (dot): 0.00000239 rev/day2

B* drag term: 0.00023391 1/REarth

Two-line elements (TLE)

Creation date: July 6, 2025, 11:06 p.m.

Reference frame: TEME

Reference center: EARTH

Epoch: July 6, 2025, 7:35 p.m. UTC

TLE line 0: 0 CZ-6A DEB

TLE line 1: 1 54628U 22151PE 25187.81663557 .00000239 00000-0 23391-3 0 9995

TLE line 2: 2 54628 98.9007 147.0251 0184974 6.8551 353.5069 13.80717425132272

Live tracking on map

Real-time ground track for satellite CZ-6A DEB.

In-orbit conjunctions

A list of the most updated potential collisions computed for object CZ-6A DEB.

Target Orbit TCA Probability of collision Miss distance Type
COSMOS 397 DEB LEO 2025-06-05 10:35:08 0.0001928063 72.0 (m) DEBRIS
COSMOS 1275 DEB LEO 2025-05-30 01:56:51 0.0002615155 160.0 (m) DEBRIS
METEOR 2-17 DEB LEO 2024-09-26 12:55:53 0.0005801986 429.0 (m) DEBRIS

Associated space launch

Chinese satellite reported for atmospheric/ocean/environmental/spatial parameter research purposes, details TBD.

CZ-6A DEB was lifted into orbit during the mission ‘Long March 6A | Yunhai 3’, on board a Long March 6A space rocket.

The launch took place on Nov. 11, 2022, 10:52 p.m. from Launch Complex 9A.

For more information about the launch, click the button.

Launch to space Long March 6A | Yunhai 3
Long March 6A | Yunhai 3

Agency: N/A

Status: Launch Successful

Launch date: Nov. 11, 2022, 10:52 p.m. UTC

Rocket: Long March 6A

Launch pad: Launch Complex 9A

Location: Taiyuan Satellite Launch Center, People's Republic of China

...

Latest news about this satellite

There are no fresh news available about this satellite. Check back as we update our databases every day.


Newsletter sign-up

Weekly statistics, charts and insights to help you stay on top of the space industry.